EHI
0 0 0 0 0 0 0 0 0 0 0 0 0 0 0 0 0 0 0 0 0 0 0 0 0 0 0 0 0 0 0 0 0 0 0 0 0 0 0 0 0 0 0
0 0 0 0 0 0 0 0 0 0 0 0 0 0 0 0 0 0 0 0 0 0 0 0 0 0 0 0 0 0 0 0 0 0 0 0 0 0 0 0 0 0 0
0 0 0 0 0 0 0 0 0 0 0 0 0 0 0 0 0 0 0 0 0 0 0 0 0 0 0 0 0 0 0 0 0 0 0 0 0 0 0 0 0 0 0
0 0 0 0 0 0 0 0 0 0 0 0 0 0 0 0 0 0 0 0 0 0 0 0 0 0 0 0 0 0 0 0 0 0 0 0 0 0 0 0 0 0 0
0 0 0 0 0 0 0 0 0 0 0 0 0 0 0 0 0 0 0 0 0 0 0 0 0 0 0 0 0 0 0 0 0 0 0 0 0 0 0 0 0 0 0
0 0 0 0 0 0 0 0 0 0 0 0 0 0 0 0 0 0 0 0 0 0 0 0 0 0 0 0 0 0 0 0 0 0 0 0 0 0 0 0 0 0 0
0 0 0 0 0 0 0 0 0 0 0 0 0 0 0 0 0 0 0 0 0 0 0 0 0 0 0 0 0 0 0 0 0 0 0 0 0 0 0 0 0 0 0
0 0 0 0 0 0 0 0 0 0 0 0 0 0 0 0 0 0 0 0 0 0 0 0 0 0 0 0 0 0 0 0 0 0 0 0 0 0 0 0 0 0 0
0 0 0 0 0 0 0 0 0 0 0 0 0 0 0 0 0 0 0 0 0 0 0 0 0 0 0 0 0 0 0 0 0 0 0 0 0 0 0 0 0 0 0
0 0 0 0 0 0 0 0 0 0 0 0 0 0 0 0 0 0 0 0 0 0 0 0 0 0 0 0 0 0 0 0 0 0 0 0 0 0 0 0 0 0 0
0 0 0 0 0 0 0 0 0 0 0 0 0 0 0 0 0 0 0 0 0 0 0 0 0 0 0 0 0 0 0 0 0 0 0 0 0 0 0 0 0 0 0
0 0 0 0 0 0 0 0 0 0 0 0 0 0 0 0 0 0 0 0 0 0 0 0 0 0 0 0 0 0 0 0 0 0 0 0 0 0 0 0 0 0 0
0 0 0 0 0 0 0 0 0 0 0 0 0 0 0 0 0 0 0 0 0 0 0 0 0 0 0 0 0 0 0 0 0 0 0 0 0 0 0 0 0 0 0
0 0 0 0 0 0 0 0 0 0 0 0 0 0 0 0 0 0 0 0 0 0 0 0 0 0 0 0 0 0 0 0 0 0 0 0 0 0 0 0 0 0 0
0 0 0 0 0 0 0 0 0 0 0 0 0 0 0 0 0 0 0 0 0 0 0 0 0 0 0 0 0 0 0 0 0 0 0 0 0 0 0 0 0 0 0
0 0 0 0 0 0 0 0 0 0 0 0 0 0 0 0 0 0 0 0 0 0 0 0 0 0 0 0 0 0 0 0 0 0 0 0 0 0 0 0 0 0 0
0 0 0 0 0 0 0 0 0 0 0 0 0 0 0 0 0 0 0 0 0 0 0 0 0 0 0 0 0 0 0 0 0 0 0 0 0 0 0 0 0 0 0
0 0 0 0 0 0 0 0 0 0 0 0 0 0 0 0 0 0 0 0 0 0 0 0 0 0 0 0 0 0 0 0 0 0 0 0 0 0 0 0 0 0 0
0 0 0 0 0 0 0 0 0 0 0 0 0 0 0 0 0 0 0 0 0 0 0 0 0 0 0 0 0 0 0 0 0 0 0 0 0 0 0 0 0 0 0
0 0 0 0 0 0 0 0 0 0 0 0 0 0 0 0 0 0 0 0 0 0 0 0 0 0 0 0 0 0 0 0 0 0 0 0 0 0 0 0 0 0 0
0 0 0 0 0 0 0 0 0 0 0 0 0 0 0 0 0 0 0 0 0 0 0 0 0 0 0 0 0 0 0 0 0 0 0 0 0 0 0 0 0 0 0
0 0 0 0 0 0 0 0 0 0 0 0 0 0 0 0 0 0 0 0 0 0 0 0 0 0 0 0 0 0 0 0 0 0 0 0 0 0 0 0 0 0 0
0 0 0 0 0 0 0 0 0 0 0 0 0 0 0 0 0 0 0 0 0 0 0 0 0 0 0 0 0 0 0 0 0 0 0 0 0 0 0 0 0 0 0
0 0 0 0 0 0 0 0 0 0 0 0 0 0 0 0 0 0 0 0 0 0 0 0 0 0 0 0 0 0 0 0 0 0 0 0 0 0 0 0 0 0 0
0 0 0 0 0 0 0 0 0 0 0 0 0 0 0 0 0 0 0 0 0 0 0 0 0 0 0 0 0 0 0 0 0 0 0 0 0 0 0 0 0 0 0
0 0 0 0 0 0 0 0 0 0 0 0 0 0 0 0 0 0 0 0 0 0 0 0 0 0 0 0 0 0 0 0 0 0 0 0 0 0 0 0 0 0 0
Wind_Speed
8 8 8 8 8 8 7 8 8 7 8 8 8 8 8 7 7 7 6 6 6 5 4 5 5 4 3 3 3 3 4 4 6 5 3 3 4 5 6 5 6 6 7
8 8 8 7 7 8 7 7 7 8 7 8 7 7 7 7 7 8 7 7 6 6 5 5 5 4 4 4 4 4 4 5 5 7 4 3 5 5 6 6 6 6 5
7 8 8 8 8 8 7 7 7 7 7 7 7 7 7 7 7 7 6 6 6 6 6 6 5 5 5 4 4 5 4 4 5 5 5 3 4 4 4 5 6 6 7
8 8 8 8 8 7 7 7 7 7 7 7 7 6 6 6 6 6 5 5 5 4 4 5 5 6 6 5 5 5 4 4 4 5 5 4 4 4 3 4 5 4 6
8 8 7 7 7 6 6 6 6 6 6 6 6 5 5 5 5 6 5 5 5 4 3 4 4 6 8 6 5 4 4 4 4 4 5 4 4 3 4 4 6 6 6
8 7 7 7 7 7 6 6 6 6 5 5 5 5 5 4 7 9 7 5 4 4 4 3 3 5 7 9 10 9 7 5 5 4 4 5 6 5 5 5 5 6 5
8 7 7 7 7 7 7 7 6 6 5 5 5 5 4 4 6 7 7 5 4 3 3 3 2 3 5 3 7 9 8 11 11 6 6 6 6 5 5 6 6 6 7
8 7 7 8 7 7 7 6 6 5 5 5 4 4 3 3 5 5 6 4 3 2 2 3 3 3 3 4 3 4 5 6 8 5 5 6 6 6 5 5 6 6 5
8 8 8 8 8 8 7 6 5 5 4 4 4 4 4 2 3 4 5 3 2 1 1 1 2 3 7 8 4 4 5 5 8 11 12 10 12 12 10 4 3 4 5
9 8 8 8 8 8 7 6 4 5 5 5 4 3 4 2 2 4 4 3 2 1 0 1 3 4 8 8 3 3 5 5 4 4 5 7 6 8 11 4 2 4 4
8 8 8 7 7 7 6 5 6 6 6 5 5 3 3 2 3 3 3 2 2 1 1 1 2 7 8 9 7 3 7 6 2 2 3 4 4 3 4 3 3 3 4
10 9 8 7 7 7 8 6 6 7 6 5 4 3 2 2 2 2 2 1 1 1 1 2 3 6 7 8 7 8 10 8 2 2 3 3 3 4 4 4 4 4 5
11 10 9 8 7 7 8 8 6 5 5 4 3 3 1 1 1 2 2 2 2 1 0 3 4 6 6 5 7 9 7 3 2 2 3 3 3 4 3 3 4 4 4
12 10 9 9 8 6 5 5 5 5 4 4 3 3 2 1 1 0 0 1 2 2 2 3 5 6 4 5 6 5 3 3 3 3 3 3 3 3 3 2 3 3 3
11 10 8 8 8 7 5 4 4 3 5 5 4 3 3 1 1 1 1 0 0 1 1 1 1 2 2 2 2 3 3 3 3 3 3 3 3 3 3 3 2 2 2
11 9 7 7 6 6 7 6 7 6 8 7 6 4 2 2 2 3 3 4 4 3 2 1 1 2 2 3 3 3 3 3 3 3 3 3 3 3 4 3 2 2 3
12 10 7 7 7 6 6 6 5 6 9 8 7 6 5 4 4 3 4 4 4 4 2 1 1 2 3 3 3 3 3 3 3 3 3 3 3 3 3 3 3 3 3
11 10 9 7 6 6 5 5 5 5 3 3 4 5 5 4 4 3 4 4 2 2 1 1 2 2 3 3 3 3 3 3 3 3 3 3 3 3 3 3 3 3 3
10 8 7 7 6 6 5 5 5 5 4 3 2 2 4 4 4 4 4 2 1 1 2 2 2 3 3 3 3 3 4 4 4 3 3 3 3 3 3 3 3 6 4
8 13 11 7 6 6 5 5 4 4 3 2 1 0 1 1 1 1 1 1 1 2 2 3 3 3 3 3 3 3 4 4 4 3 3 3 3 3 4 4 3 3 3
8 10 13 8 6 6 5 5 4 4 3 2 1 1 0 1 1 1 1 1 2 2 3 3 3 3 3 3 3 4 4 4 3 3 3 3 3 3 3 3 3 3 3
8 8 7 7 6 5 5 4 4 3 3 2 1 1 2 1 0 1 2 2 2 2 3 3 3 3 3 3 3 4 4 4 4 3 3 3 3 3 3 3 3 3 3
9 9 7 6 6 8 6 4 4 3 2 2 1 0 0 0 1 2 2 2 2 3 3 3 3 4 3 3 4 4 4 5 4 4 4 4 4 4 3 4 4 4 3
9 9 8 7 6 5 5 4 3 3 2 2 1 1 1 1 2 2 3 3 3 3 3 3 4 5 6 5 4 4 4 5 5 5 6 5 5 4 4 4 4 4 4
8 8 8 7 6 5 5 4 3 2 2 1 1 1 1 1 2 3 3 3 4 4 5 4 4 5 6 7 6 6 10 13 11 7 5 5 5 5 5 5 4 4 4
8 8 7 6 5 5 4 4 3 2 2 1 1 1 2 2 3 3 3 3 3 4 4 4 5 6 7 7 8 11 13 13 13 13 6 4 5 5 4 4 5 4 4
Wind_Direction
172 173 171 174 172 169 173 179 175 170 169 175 179 178 178 178 175 177 182 176 185 192 188 194 209 194 194 197 193 199 207 200 246 266 247 258 261 267 281 280 274 273 280
167 166 169 167 165 169 173 173 168 169 173 175 172 173 178 179 177 181 185 183 187 195 199 198 213 199 206 205 203 213 218 213 228 266 271 261 255 260 266 275 280 279 271
160 161 163 165 168 172 171 167 165 166 167 166 167 176 180 179 179 184 184 184 192 198 197 202 210 199 218 219 217 223 227 230 226 249 272 263 265 267 277 277 276 279 281
158 161 166 171 172 170 164 161 162 162 162 167 173 175 173 170 172 175 176 183 191 196 200 206 207 206 219 223 226 229 229 232 234 248 266 271 265 265 262 274 285 271 278
160 165 170 165 158 153 152 153 151 153 158 160 157 155 155 160 172 173 177 180 183 195 209 216 218 224 232 233 234 228 221 230 237 248 263 272 271 271 265 259 276 282 273
163 165 156 151 149 150 149 145 143 143 141 142 151 154 158 173 188 187 175 174 182 192 213 227 235 240 253 264 269 267 255 246 245 245 257 264 269 262 264 267 275 287 286
159 154 152 150 148 148 144 141 145 147 142 145 152 155 165 180 182 183 179 164 178 193 206 218 240 252 269 267 280 288 287 284 278 270 262 262 267 266 268 274 269 272 276
155 153 152 149 147 143 141 144 143 140 146 149 150 153 148 162 171 175 171 153 165 187 203 212 230 255 268 273 251 263 265 271 278 275 253 260 263 267 260 268 276 280 274
158 158 157 152 147 145 147 146 141 137 134 135 137 138 137 147 160 158 141 134 152 195 221 227 241 248 280 294 283 271 277 276 284 288 290 295 300 306 306 301 297 295 293
163 156 150 148 147 150 148 139 130 130 128 122 114 121 128 130 129 128 125 132 147 190 263 272 284 291 296 304 284 264 277 277 281 296 303 308 308 306 310 306 276 283 287
140 135 135 137 138 137 128 122 123 118 113 110 106 96 102 110 118 115 109 121 152 168 225 264 276 302 309 310 308 278 288 307 301 291 290 291 293 292 291 282 257 249 264
130 129 128 127 125 124 120 116 116 119 115 112 107 92 71 72 87 102 90 60 79 154 231 250 277 311 319 320 319 315 320 331 333 309 300 294 291 287 284 283 275 260 250
127 126 123 117 112 121 125 125 119 117 119 121 119 116 95 54 43 51 40 18 8 43 280 319 329 333 335 331 326 327 334 337 314 304 296 289 281 278 286 293 290 290 289
129 127 125 121 114 107 109 120 124 129 127 128 131 131 118 78 27 17 51 26 15 21 25 356 355 352 352 337 334 337 336 311 310 292 288 285 291 292 292 291 292 309 316
127 126 123 120 121 113 103 105 119 134 148 146 153 151 144 160 243 346 52 114 135 142 86 33 4 348 339 330 325 318 315 317 318 307 300 301 304 307 303 305 299 309 303
131 130 128 126 122 120 115 95 82 100 105 105 115 118 112 99 50 28 18 17 9 15 45 16 326 317 307 306 308 309 307 308 308 308 306 303 303 302 302 304 302 300 297
135 135 131 131 130 129 128 125 114 83 81 84 88 84 77 67 54 38 29 28 21 23 38 333 302 298 296 297 296 293 292 296 299 298 298 300 300 298 299 302 306 306 301
127 131 131 131 130 130 128 127 128 128 112 73 62 64 63 60 51 38 34 41 24 22 346 291 286 288 289 291 292 292 292 297 296 293 292 293 294 296 299 301 303 297 297
126 126 124 123 122 123 122 119 118 117 117 112 76 47 50 52 47 35 35 53 316 305 301 293 286 285 286 286 286 288 287 286 287 286 285 288 289 285 288 291 295 304 309
123 130 128 125 123 121 121 121 121 121 121 122 122 119 37 54 44 10 17 347 294 286 287 287 288 286 286 283 283 286 287 286 285 277 277 281 281 277 281 286 289 293 291
124 128 127 121 122 125 125 126 128 130 133 135 151 243 262 124 159 264 288 286 275 275 278 280 281 284 282 279 277 280 281 282 279 274 274 277 279 277 276 280 283 282 288
124 124 124 125 123 123 123 124 127 130 135 137 134 348 20 58 283 278 281 283 277 270 268 269 271 270 267 268 272 277 279 280 278 273 271 271 271 274 277 280 283 285 289
123 123 121 121 122 128 121 120 124 128 133 139 154 169 341 282 270 275 281 285 285 281 278 271 273 275 272 265 260 259 266 273 272 267 266 269 267 269 271 274 278 280 282
124 126 126 126 124 125 128 129 131 136 142 153 176 213 243 259 271 282 284 285 284 282 278 273 272 275 279 279 272 266 261 265 263 254 249 252 259 263 263 266 269 269 271
124 126 127 130 132 133 133 134 138 142 148 163 192 235 262 275 280 284 284 283 285 283 284 282 277 279 281 281 281 277 281 285 283 272 241 237 245 249 253 259 263 265 264
123 124 125 127 130 134 138 142 147 152 163 184 214 242 263 272 277 281 284 282 284 285 286 285 279 280 282 284 283 286 290 290 289 288 272 234 235 243 245 251 258 259 261